DF1NIF-13 Weather Reports


time (UTC)temp
C
wind
direction
speed
KPH
gust
KPH
rain 1hr
cm
rain 24hr
cm
rain mn
cm
humidity
%
barometer
mb
20260903184913 16 106 0.0 0.0 0.00 0.00 0.00 90 973.6
20260903184443 16 106 0.0 0.0 0.00 0.00 0.00 90 973.5
20260903183953 16 106 0.0 0.0 0.00 0.00 0.00 90 973.6
20260903183456 16 106 0.0 0.0 0.00 0.00 0.00 90 973.5
20260903183018 16 106 0.0 0.0 0.00 0.00 0.00 90 973.6
20260903182533 16 106 0.0 0.0 0.00 0.00 0.00 90 973.6
20260903182059 16 106 0.0 0.0 0.00 0.00 0.00 90 973.6
20260903181623 16 106 0.0 0.0 0.00 0.00 0.00 90 973.6
20260903181156 16 106 0.0 0.0 0.00 0.00 0.00 90 973.3
20260903180743 16 106 0.0 0.0 0.00 0.00 0.00 90 973.5
20260903180308 16 106 1.6 1.6 0.00 0.00 0.00 90 973.5
20260903175856 16 106 0.0 0.0 0.00 0.00 0.00 90 973.2
20260903175407 16 106 0.0 1.6 0.00 0.00 0.00 90 973.4
20260903174938 16 106 0.0 1.6 0.00 0.00 0.00 90 973.5
20260903174513 16 106 0.0 0.0 0.00 0.00 0.00 90 973.6
20260903174033 16 99 0.0 0.0 0.00 0.00 0.00 90 973.3
20260903173603 16 99 0.0 0.0 0.00 0.00 0.00 90 973.3
20260903173143 16 99 0.0 0.0 0.00 0.00 0.00 90 973.3
20260903172703 16 99 1.6 1.6 0.00 0.00 0.00 90 973.1
20260903172236 16 99 1.6 1.6 0.00 0.00 0.00 90 973.3
20260903171806 16 99 1.6 1.6 0.00 0.00 0.00 90 973.2
20260903171328 16 99 1.6 1.6 0.00 0.00 0.00 89 973.2
20260903170913 16 99 0.0 1.6 0.00 0.00 0.00 89 973.4
20260903170438 16 99 0.0 1.6 0.00 0.00 0.00 89 973.5
20260903170028 16 99 0.0 1.6 0.00 0.00 0.00 89 973.2
20260903165616 16 99 0.0 0.0 0.00 0.00 0.00 89 973.4
20260903165208 16 99 0.0 0.0 0.00 0.00 0.00 89 973.5
20260903164736 16 99 0.0 0.0 0.00 0.00 0.00 87 973.6
20260903164308 16 99 0.0 0.0 0.00 0.00 0.00 87 973.4
20260903163834 16 106 0.0 0.0 0.00 0.00 0.00 87 973.7
20260903163423 16 106 0.0 0.0 0.00 0.00 0.00 87 973.7
20260903162958 16 106 0.0 4.8 0.00 0.00 0.00 87 973.7
20260903162523 16 106 1.6 4.8 0.00 0.00 0.00 87 973.7
20260903162028 16 106 0.0 4.8 0.00 0.00 0.00 87 973.7
20260903161613 16 106 0.0 4.8 0.00 0.00 0.00 87 973.7
20260903161143 16 106 0.0 1.6 0.00 0.00 0.00 87 973.7
20260903160713 16 111 0.0 1.6 0.00 0.00 0.00 87 973.9
20260903160253 16 69 0.0 0.0 0.00 0.00 0.00 87 974.2
20260903155828 16 69 0.0 0.0 0.00 0.00 0.00 87 974.0
20260903155353 16 69 0.0 0.0 0.00 0.00 0.00 87 974.1
20260903154918 16 69 0.0 0.0 0.00 0.00 0.00 87 973.9
20260903154436 16 69 0.0 0.0 0.00 0.00 0.00 87 974.0
20260903153948 16 69 0.0 0.0 0.00 0.00 0.00 87 974.1
20260903153533 16 69 0.0 0.0 0.00 0.00 0.00 87 974.2
20260903153048 16 69 0.0 0.0 0.00 0.00 0.00 87 973.9
20260903152623 16 69 0.0 0.0 0.00 0.00 0.00 87 974.1
20260903152138 16 68 1.6 1.6 0.00 0.00 0.00 87 974.1
20260903151713 16 67 0.0 1.6 0.00 0.00 0.00 87 973.9
20260903151236 16 67 0.0 1.6 0.00 0.00 0.00 87 974.0
20260903150818 16 65 0.0 1.6 0.00 0.00 0.00 87 974.0
20260903150346 16 65 0.0 1.6 0.00 0.00 0.00 87 974.0
20260903145928 16 65 0.0 0.0 0.00 0.00 0.00 87 973.8
20260903145513 16 66 0.0 0.0 0.00 0.00 0.00 87 973.9
20260903145053 16 338 0.0 1.6 0.00 0.00 0.00 88 973.9
20260903144153 16 338 0.0 1.6 0.00 0.00 0.00 85 974.1
20260903143733 16 338 1.6 1.6 0.00 0.00 0.00 85 974.2
20260903143253 16 338 1.6 1.6 0.00 0.00 0.00 85 974.0
20260903142813 16 338 0.0 1.6 0.00 0.00 0.00 85 974.4
20260903142343 17 338 0.0 4.8 0.00 0.00 0.00 85 974.2
20260903141853 17 335 0.0 0.0 0.00 0.00 0.00 85 974.6
20260903141403 17 335 1.6 4.8 0.00 0.00 0.00 83 974.6
20260903140903 17 335 1.6 4.8 0.00 0.00 0.00 83 974.4
20260903140436 17 349 0.0 4.8 0.00 0.00 0.00 83 974.5
20260903140008 17 286 3.2 4.8 0.00 0.00 0.00 83 974.3
20260903135533 17 286 3.2 8.0 0.00 0.00 0.00 83 974.2
20260903135058 17 286 3.2 8.0 0.00 0.00 0.00 83 974.4
20260903134623 17 286 3.2 8.0 0.00 0.00 0.00 83 974.2
20260903134136 17 9 1.6 4.8 0.00 0.00 0.00 81 974.2
20260903133653 17 102 1.6 1.6 0.00 0.00 0.00 81 974.2
20260903133238 17 102 3.2 1.6 0.00 0.00 0.00 81 974.2
20260903132758 17 306 0.0 1.6 0.00 0.00 0.00 81 974.1
20260903132333 17 306 3.2 1.6 0.00 0.00 0.00 78 974.2
20260903131853 18 306 3.2 1.6 0.00 0.00 0.00 68 974.4
20260903131433 18 306 1.6 1.6 0.00 0.00 0.00 68 974.1
20260903131013 18 274 1.6 8.0 0.00 0.00 0.00 68 974.2
20260903130533 20 265 0.0 14.5 0.00 0.00 0.00 68 974.3
20260903130113 20 321 14.5 8.0 0.00 0.00 0.00 57 974.6
20260903125656 20 321 14.5 14.5 0.00 0.00 0.00 57 974.4
20260903125246 20 321 14.5 20.9 0.00 0.00 0.00 57 974.2
20260903124816 20 334 11.3 29.0 0.00 0.00 0.00 57 974.3
20260903124401 20 159 8.0 14.5 0.00 0.00 0.00 57 974.3
20260903123956 20 159 6.4 14.5 0.00 0.00 0.00 57 974.3
20260903123523 20 159 6.4 11.3 0.00 0.00 0.00 57 974.1
20260903123113 20 159 6.4 11.3 0.00 0.00 0.00 52 973.8
20260903122638 20 324 0.0 8.0 0.00 0.00 0.00 52 973.8
20260903122213 20 159 1.6 20.9 0.00 0.00 0.00 52 973.7
20260903121723 20 341 4.8 20.9 0.00 0.00 0.00 52 974.0
20260903121233 20 341 3.2 14.5 0.00 0.00 0.00 52 974.0
20260903120808 20 341 1.6 14.5 0.00 0.00 0.00 50 974.0
20260903120328 20 289 8.0 8.0 0.00 0.00 0.00 50 974.2
20260903115916 20 289 11.3 8.0 0.00 0.00 0.00 50 974.1
20260903115513 20 289 3.2 8.0 0.00 0.00 0.00 50 974.2
20260903115048 20 159 3.2 22.5 0.00 0.00 0.00 50 974.2
20260903114618 20 159 3.2 4.8 0.00 0.00 0.00 50 974.3
20260903114158 20 159 3.2 14.5 0.00 0.00 0.00 50 974.5
20260903113728 20 159 14.5 20.9 0.00 0.00 0.00 50 974.5
20260903113256 20 159 3.2 17.7 0.00 0.00 0.00 50 974.4
20260903112843 20 345 12.9 20.9 0.00 0.00 0.00 50 974.3
20260903112423 20 216 6.4 29.0 0.00 0.00 0.00 51 974.5
20260903111948 20 216 6.4 25.7 0.00 0.00 0.00 51 974.6
20260903111538 20 216 3.2 11.3 0.00 0.00 0.00 52 974.4
20260903111103 20 263 11.3 20.9 0.00 0.00 0.00 52 974.4
20260903110623 20 149 6.4 14.5 0.00 0.00 0.00 52 974.7
20260903110123 20 159 17.7 14.5 0.00 0.00 0.00 53 974.4
20260903105656 20 203 9.7 20.9 0.00 0.00 0.00 53 974.6
20260903105233 20 203 9.7 20.9 0.00 0.00 0.00 53 974.6
20260903104823 19 203 1.6 8.0 0.00 0.00 0.00 53 974.8
20260903104358 19 317 1.6 14.5 0.00 0.00 0.00 53 974.5
20260903103923 19 136 8.0 17.7 0.00 0.00 0.00 53 974.7
20260903103514 20 136 12.9 17.7 0.00 0.00 0.00 53 974.8
20260903103102 20 114 17.7 22.5 0.00 0.00 0.00 48 974.6
20260903102656 20 114 12.9 17.7 0.00 0.00 0.00 48 974.8
20260903102213 20 321 20.9 35.4 0.00 0.00 0.00 48 974.9
20260903101743 20 260 32.2 14.5 0.00 0.00 0.00 48 974.9
20260903101316 20 353 19.3 14.5 0.00 0.00 0.00 48 975.1
20260903100848 20 315 19.3 14.5 0.00 0.00 0.00 48 975.0
20260903100413 20 315 14.5 14.5 0.00 0.00 0.00 48 975.0
20260903095948 20 265 14.5 22.5 0.00 0.00 0.00 48 975.0
20260903095513 20 203 14.5 29.0 0.00 0.00 0.00 50 975.1
20260903095028 20 1 20.9 29.0 0.00 0.00 0.00 50 974.9
20260903094553 20 238 17.7 29.0 0.00 0.00 0.00 50 974.8
20260903094128 20 116 17.7 40.2 0.00 0.00 0.00 48 974.9
20260903093708 20 325 11.3 32.2 0.00 0.00 0.00 48 975.1
20260903093243 20 111 11.3 22.5 0.00 0.00 0.00 48 975.1
20260903092756 20 136 14.5 22.5 0.00 0.00 0.00 48 974.8
20260903092348 20 136 8.0 20.9 0.00 0.00 0.00 48 975.1
20260903091902 20 326 1.6 25.7 0.00 0.00 0.00 48 974.8
20260903091433 20 321 4.8 14.5 0.00 0.00 0.00 49 974.7
20260903091013 20 333 6.4 32.2 0.00 0.00 0.00 49 975.1
20260903090613 20 333 9.7 32.2 0.00 0.00 0.00 48 975.0
20260903090118 20 135 1.6 17.7 0.00 0.00 0.00 49 974.9
20260903085653 20 238 6.4 8.0 0.00 0.00 0.00 51 974.8
20260903085223 20 289 1.6 4.8 0.00 0.00 0.00 51 974.9
20260903084733 18 304 4.8 20.9 0.00 0.00 0.00 51 974.9
20260903084248 18 284 16.1 14.5 0.00 0.00 0.00 51 975.0
20260903083759 20 211 16.1 14.5 0.00 0.00 0.00 51 975.3
20260903083333 20 211 8.0 22.5 0.00 0.00 0.00 51 975.0
20260903082848 20 141 1.6 8.0 0.00 0.00 0.00 51 975.2
20260903082428 18 102 6.4 11.3 0.00 0.00 0.00 51 975.1
20260903082028 18 71 1.6 4.8 0.00 0.00 0.00 51 975.1
20260903081603 18 71 1.6 4.8 0.00 0.00 0.00 55 974.9
20260903081153 18 71 1.6 4.8 0.00 0.00 0.00 55 974.8
20260903080728 18 342 1.6 8.0 0.00 0.00 0.00 55 974.8
20260903080253 18 100 0.0 8.0 0.00 0.00 0.00 55 974.8
20260903075808 18 140 0.0 8.0 0.00 0.00 0.00 55 974.7
20260903075318 18 108 9.7 0.0 0.00 0.00 0.00 59 974.7
20260903074848 17 108 8.0 14.5 0.00 0.00 0.00 59 974.7
20260903074413 17 114 3.2 14.5 0.00 0.00 0.00 59 974.6
20260903073958 17 99 6.4 8.0 0.00 0.00 0.00 59 974.8
20260903073548 18 99 3.2 14.5 0.00 0.00 0.00 59 974.7
20260903073115 18 119 3.2 11.3 0.00 0.00 0.00 59 975.0
20260903072658 18 119 3.2 4.8 0.00 0.00 0.00 59 974.8
20260903072228 18 119 1.6 4.8 0.00 0.00 0.00 64 975.2
20260903071745 18 106 1.6 8.0 0.00 0.00 0.00 64 975.0
20260903071328 17 113 1.6 8.0 0.00 0.00 0.00 64 975.1
20260903070835 17 113 3.2 8.0 0.00 0.00 0.00 64 975.2
20260903070358 17 97 3.2 1.6 0.00 0.00 0.00 64 975.1
20260903065908 17 97 1.6 0.0 0.00 0.00 0.00 64 975.0
20260903065438 17 19 1.6 0.0 0.00 0.00 0.00 64 975.2
20260903065033 18 19 0.0 0.0 0.00 0.00 0.00 64 975.3
20260903064613 18 19 1.6 0.0 0.00 0.00 0.00 63 975.0
20260903064128 18 19 1.6 0.0 0.00 0.00 0.00 63 975.3
20260903063703 16 19 1.6 0.0 0.00 0.00 0.00 66 975.2
20260903063225 16 19 1.6 0.0 0.00 0.00 0.00 66 975.2
20260903062758 16 19 0.0 0.0 0.00 0.00 0.00 77 975.2
20260903062343 15 19 0.0 0.0 0.00 0.00 0.00 77 975.0
20260903061903 15 324 1.6 0.0 0.00 0.00 0.00 77 975.4
20260903061415 12 324 0.0 0.0 0.00 0.00 0.00 77 975.5
20260903060923 12 324 0.0 0.0 0.00 0.00 0.00 77 975.4
20260903060455 12 324 0.0 1.6 0.00 0.00 0.00 77 975.3
20260903060048 12 324 0.0 0.0 0.00 0.00 0.00 77 975.4
20260903055603 12 322 0.0 0.0 0.00 0.00 0.00 88 975.4
20260903055133 12 322 0.0 0.0 0.00 0.00 0.00 88 975.5
20260903054708 12 322 0.0 0.0 0.00 0.00 0.00 88 975.2
20260903054255 11 322 0.0 0.0 0.00 0.00 0.00 88 975.3
20260903053843 11 322 0.0 0.0 0.00 0.00 0.00 88 975.1
20260903053418 11 322 0.0 0.0 0.00 0.00 0.00 88 975.1
20260903053013 11 322 0.0 0.0 0.00 0.00 0.00 88 974.8
20260903052548 11 322 0.0 0.0 0.00 0.00 0.00 88 974.7
20260903052113 11 322 0.0 0.0 0.00 0.00 0.00 88 974.8
20260903051653 11 322 0.0 0.0 0.00 0.00 0.00 88 974.8
20260903051203 11 322 0.0 0.0 0.00 0.00 0.00 88 974.6
20260903050743 11 322 0.0 0.0 0.00 0.00 0.00 87 974.7
20260903050333 11 322 0.0 0.0 0.00 0.00 0.00 87 974.8
20260903045913 11 322 1.6 0.0 0.00 0.00 0.00 87 974.8
20260903045458 11 322 0.0 0.0 0.00 0.00 0.00 87 974.6
20260903045043 11 322 0.0 0.0 0.00 0.00 0.00 87 974.8
20260903044618 11 322 0.0 0.0 0.00 0.00 0.00 86 975.1
20260903044118 12 322 0.0 0.0 0.00 0.00 0.00 86 974.7
20260903043638 11 322 0.0 0.0 0.00 0.00 0.00 86 974.6
20260903043203 11 322 0.0 1.6 0.00 0.00 0.00 88 974.5
20260903042728 11 322 3.2 1.6 0.00 0.00 0.00 88 974.8
20260903042238 11 322 0.0 1.6 0.00 0.00 0.00 88 974.7
20260903041823 11 322 0.0 1.6 0.00 0.00 0.00 88 974.7
20260903041333 11 322 0.0 1.6 0.00 0.00 0.00 88 974.8
20260903040908 11 322 0.0 1.6 0.00 0.00 0.00 88 975.0
20260903040448 12 322 0.0 1.6 0.00 0.00 0.00 88 974.5
20260903040038 11 322 0.0 1.6 0.00 0.00 0.00 88 974.6
20260903035623 11 327 1.6 1.6 0.00 0.00 0.00 88 974.9
20260903035148 11 327 0.0 1.6 0.00 0.00 0.00 88 974.8
20260903034708 12 327 1.6 1.6 0.00 0.00 0.00 88 974.7
20260903034253 12 327 1.6 1.6 0.00 0.00 0.00 88 974.9
20260903033833 12 327 1.6 0.0 0.00 0.00 0.00 88 974.9
20260903033358 12 327 1.6 0.0 0.00 0.00 0.00 88 974.6
20260903032918 12 327 0.0 0.0 0.00 0.00 0.00 75 974.8
20260903032435 12 327 0.0 0.0 0.00 0.00 0.00 75 974.8
20260903032018 12 327 0.0 0.0 0.00 0.00 0.00 75 974.8
20260903031555 12 327 0.0 0.0 0.00 0.00 0.00 75 974.8
20260903031118 12 327 0.0 0.0 0.00 0.00 0.00 75 974.7
20260903030643 12 327 0.0 0.0 0.00 0.00 0.00 75 974.8
20260903030203 12 327 0.0 0.0 0.00 0.00 0.00 75 974.8
20260903025733 11 327 0.0 0.0 0.00 0.00 0.00 75 974.8
20260903025308 11 327 0.0 0.0 0.00 0.00 0.00 75 974.8
20260903024833 11 327 0.0 0.0 0.00 0.00 0.00 75 974.9
20260903024428 11 327 0.0 0.0 0.00 0.00 0.00 75 974.7
20260903023955 11 327 0.0 0.0 0.00 0.00 0.00 75 974.8
20260903023535 11 327 1.6 0.0 0.00 0.00 0.00 75 974.7
20260903023058 11 327 0.0 0.0 0.00 0.00 0.00 75 974.7
20260903022621 11 327 0.0 0.0 0.00 0.00 0.00 75 974.9
20260903022143 11 327 1.6 0.0 0.00 0.00 0.00 75 974.8
20260903021653 12 327 0.0 0.0 0.00 0.00 0.00 75 974.5
20260903021233 12 327 0.0 0.0 0.00 0.00 0.00 75 974.6
20260903020743 12 327 0.0 0.0 0.00 0.00 0.00 75 974.8
20260903020253 12 327 0.0 1.6 0.00 0.00 0.00 75 974.7
20260903015843 12 327 1.6 0.0 0.00 0.00 0.00 75 974.7
20260903015423 12 327 1.6 0.0 0.00 0.00 0.00 75 974.7
20260903015003 12 327 0.0 0.0 0.00 0.00 0.00 75 974.7
20260903014535 12 327 0.0 0.0 0.00 0.00 0.00 75 974.7
20260903014113 13 327 0.0 0.0 0.00 0.00 0.00 75 974.6
20260903013708 13 327 0.0 0.0 0.00 0.00 0.00 75 974.7
20260903013238 13 327 0.0 0.0 0.00 0.00 0.00 75 974.7
20260903012803 13 327 0.0 0.0 0.00 0.00 0.00 75 974.9
20260903012333 13 327 0.0 1.6 0.00 0.00 0.00 75 974.6
20260903011848 13 327 0.0 1.6 0.00 0.00 0.00 75 974.7
20260903011413 13 327 0.0 1.6 0.00 0.00 0.00 75 974.7
20260903010948 13 327 0.0 1.6 0.00 0.00 0.00 75 974.6
20260903010513 13 327 1.6 1.6 0.00 0.00 0.00 75 974.8
20260903010033 13 327 1.6 1.6 0.00 0.00 0.00 75 974.6
20260903005603 13 302 0.0 1.6 0.00 0.00 0.00 75 974.7
20260903005133 13 302 0.0 0.0 0.00 0.00 0.00 75 974.6
20260903004643 13 302 0.0 1.6 0.00 0.00 0.00 75 974.7
20260903004158 14 302 0.0 1.6 0.00 0.00 0.00 75 974.6
20260903003742 14 302 0.0 1.6 0.00 0.00 0.00 75 974.6
20260903003308 15 302 0.0 1.6 0.00 0.00 0.00 75 974.6
20260903002833 15 302 0.0 1.6 0.00 0.00 0.00 75 974.6
20260903002413 15 302 0.0 0.0 0.00 0.00 0.00 75 974.8
20260903001955 15 302 0.0 0.0 0.00 0.00 0.00 75 974.5
20260903001538 15 302 1.6 1.6 0.00 0.00 0.00 75 974.8
20260903001135 15 302 0.0 0.0 0.00 0.00 0.00 75 974.5
20260903000713 15 302 0.0 0.0 0.00 0.00 0.00 75 974.7
20260903000233 15 302 0.0 0.0 0.00 0.00 0.00 76 974.6
20260902235808 15 302 0.0 0.0 0.00 0.00 0.00 76 974.7
20260902235328 15 302 0.0 1.6 0.00 0.00 0.00 76 974.8
20260902234858 15 302 0.0 0.0 0.00 0.00 0.00 76 974.7
20260902234444 15 302 0.0 0.0 0.00 0.00 0.00 76 974.5
20260902233953 15 302 0.0 0.0 0.00 0.00 0.00 76 974.7
20260902233533 15 302 0.0 0.0 0.00 0.00 0.00 76 974.7
20260902233053 15 302 0.0 0.0 0.00 0.00 0.00 76 974.5
20260902232638 15 302 0.0 0.0 0.00 0.00 0.00 76 974.5
20260902232153 15 302 0.0 0.0 0.00 0.00 0.00 76 974.6
20260902231723 15 302 0.0 0.0 0.00 0.00 0.00 76 974.7
20260902231235 15 302 0.0 0.0 0.00 0.00 0.00 75 974.7
20260902230808 15 302 0.0 0.0 0.00 0.00 0.00 75 974.6
20260902230318 15 302 0.0 0.0 0.00 0.00 0.00 75 974.7
20260902225835 15 302 0.0 0.0 0.00 0.00 0.00 75 974.6
20260902225408 15 302 0.0 0.0 0.00 0.00 0.00 75 974.7
20260902224923 15 302 0.0 0.0 0.00 0.00 0.00 75 974.7
20260902224513 15 302 0.0 0.0 0.00 0.00 0.00 74 974.6
20260902224055 15 302 1.6 0.0 0.00 0.00 0.00 74 974.6
20260902223603 15 302 1.6 0.0 0.00 0.00 0.00 74 974.5
20260902223123 15 302 0.0 0.0 0.00 0.00 0.00 74 974.5
20260902222647 15 302 1.6 0.0 0.00 0.00 0.00 74 974.7
20260902222226 15 314 0.0 0.0 0.00 0.00 0.00 74 974.7
20260902221806 15 314 0.0 0.0 0.00 0.00 0.00 74 974.5
20260902221328 15 314 0.0 1.6 0.00 0.00 0.00 74 974.8
20260902220838 15 308 0.0 0.0 0.00 0.00 0.00 74 974.6
20260902220418 15 308 0.0 0.0 0.00 0.00 0.00 74 974.5
20260902220003 15 303 0.0 4.8 0.00 0.00 0.00 74 974.4
20260902215503 15 313 0.0 1.6 0.00 0.00 0.00 74 974.6
20260902215038 15 313 0.0 4.8 0.00 0.00 0.00 74 974.5
20260902214548 15 313 1.6 4.8 0.00 0.00 0.00 74 974.6
20260902214108 15 306 3.2 4.8 0.00 0.00 0.00 74 974.6
20260902213615 15 317 1.6 4.8 0.00 0.00 0.00 74 974.6
20260902213143 15 317 3.2 0.0 0.00 0.00 0.00 74 974.7
20260902212733 15 317 0.0 0.0 0.00 0.00 0.00 74 974.5
20260902212313 15 317 1.6 1.6 0.00 0.00 0.00 74 974.6
20260902211843 15 317 1.6 0.0 0.00 0.00 0.00 74 974.6
20260902211413 15 317 1.6 0.0 0.00 0.00 0.00 68 974.5
20260902210948 15 317 1.6 0.0 0.00 0.00 0.00 68 974.6
20260902210528 15 317 1.6 4.8 0.00 0.00 0.00 68 974.6
20260902210058 15 317 3.2 4.8 0.00 0.00 0.00 68 974.5
20260902205633 15 317 1.6 4.8 0.00 0.00 0.00 68 974.2
20260902205213 15 317 1.6 4.8 0.00 0.00 0.00 68 974.2
20260902204803 15 287 1.6 4.8 0.00 0.00 0.00 68 974.3
20260902204328 15 287 3.2 1.6 0.00 0.00 0.00 68 974.4
20260902203918 15 287 3.2 0.0 0.00 0.00 0.00 68 974.4
20260902203448 15 287 0.0 0.0 0.00 0.00 0.00 68 974.5
20260902203013 15 287 0.0 0.0 0.00 0.00 0.00 68 974.2
20260902202543 16 287 0.0 1.6 0.00 0.00 0.00 68 974.3
20260902202103 16 287 3.2 4.8 0.00 0.00 0.00 68 974.2
20260902201645 16 287 0.0 4.8 0.00 0.00 0.00 68 974.3
20260902201228 16 329 3.2 1.6 0.00 0.00 0.00 68 974.3
20260902200753 16 329 1.6 0.0 0.00 0.00 0.00 68 974.2
20260902200258 16 329 1.6 0.0 0.00 0.00 0.00 68 974.5
20260902195828 17 329 1.6 1.6 0.00 0.00 0.00 63 974.2
20260902195408 17 329 0.0 1.6 0.00 0.00 0.00 63 974.1
20260902194928 20 329 0.0 1.6 0.00 0.00 0.00 63 974.2
20260902194513 20 329 3.2 1.6 0.00 0.00 0.00 63 974.3
20260902194058 20 329 3.2 1.6 0.00 0.00 0.00 63 974.1
20260902193623 20 324 3.2 1.6 0.00 0.00 0.00 63 974.3
20260902193158 20 324 1.6 1.6 0.00 0.00 0.00 63 974.3
20260902192708 20 324 1.6 4.8 0.00 0.00 0.00 63 974.3
20260902192253 20 324 1.6 1.6 0.00 0.00 0.00 63 974.3
20260902191808 20 324 3.2 1.6 0.00 0.00 0.00 63 974.3
20260902191353 20 324 3.2 1.6 0.00 0.00 0.00 63 974.2
20260902190913 20 324 1.6 1.6 0.00 0.00 0.00 61 974.2
20260902190453 20 324 1.6 1.6 0.00 0.00 0.00 61 974.1
20260902190033 20 324 3.2 4.8 0.00 0.00 0.00 61 974.1
20260902185555 20 324 3.2 4.8 0.00 0.00 0.00 57 973.9
20260902185138 20 331 3.2 4.8 0.00 0.00 0.00 57 973.9